Wind_Speed
12 12 10 9 3 3 5 5 7 8 6 6 4 3 3 3 4 3 3 2 5 4 4 2 3 2 2 3 3 4 4 3 2 1 2 3 3 2 2 3 5 5 6 7 8 8 8 7 7
13 13 12 8 3 5 5 9 8 8 6 3 2 2 2 1 1 2 2 1 4 3 3 3 3 2 1 2 4 6 5 4 3 2 1 1 0 1 1 1 3 3 4 4 5 6 7 8 8
12 12 12 6 8 5 3 7 7 6 4 2 1 1 1 1 0 1 0 2 2 2 2 2 3 3 1 1 2 5 5 4 3 2 2 2 2 2 3 3 1 3 3 4 6 7 7 7 7
11 11 12 7 7 8 9 7 6 5 3 2 1 0 1 1 1 1 1 2 2 2 2 2 2 3 3 1 2 3 4 4 3 3 4 3 4 5 6 6 5 5 5 1 1 2 3 3 4
11 11 11 9 11 9 8 7 6 6 4 3 2 1 0 1 2 1 2 2 3 2 2 1 0 1 2 2 2 3 4 4 3 4 4 3 4 4 6 6 6 6 6 4 3 4 3 2 3
11 11 5 9 10 8 8 8 8 6 5 4 3 1 1 1 3 3 3 1 2 2 2 1 1 1 1 1 3 4 5 5 5 5 5 5 5 5 6 8 8 8 8 8 8 7 8 8 8
11 10 9 10 8 8 8 8 7 6 5 4 4 3 3 4 3 3 4 2 3 3 3 2 2 2 2 2 3 3 3 5 6 6 7 7 6 6 8 9 9 8 11 12 12 11 11 11 13
11 9 10 9 9 9 9 9 7 6 8 6 5 3 3 4 4 5 5 5 5 4 4 3 3 3 4 3 4 4 4 5 5 6 7 7 7 7 7 7 5 6 8 11 13 14 15 15 14
10 10 9 9 7 10 8 10 9 8 8 8 7 8 8 7 6 5 6 6 6 6 6 5 5 5 5 5 6 6 6 7 6 6 6 7 7 8 7 6 6 8 10 13 13 14 13 14 15
11 12 10 8 9 10 9 9 10 9 10 9 9 9 9 8 8 8 8 8 8 9 8 8 7 6 7 7 8 8 8 7 8 8 7 7 7 8 7 7 7 10 11 12 12 13 14 15 17
12 15 12 10 10 10 10 10 11 11 13 12 12 14 12 11 10 10 10 11 11 11 10 10 9 8 8 9 9 9 9 9 9 9 9 9 9 8 8 9 9 11 13 13 14 16 17 17 18
14 13 12 12 11 12 12 12 13 13 14 15 15 15 13 13 12 13 14 14 13 13 11 12 11 10 10 10 10 10 10 10 10 10 10 10 10 11 10 11 11 12 13 15 16 17 19 19 19
15 14 14 14 12 13 13 14 16 14 16 14 13 14 14 14 14 13 13 12 13 14 13 13 12 11 11 11 11 11 11 11 11 11 11 11 11 12 12 13 14 13 15 16 17 17 19 21 22
15 13 15 16 15 14 15 17 17 13 15 13 12 12 13 12 14 13 11 13 14 15 15 15 13 13 13 12 11 11 12 12 12 12 12 12 12 13 14 15 16 16 17 18 19 19 20 21 22
15 15 16 16 15 17 16 20 17 13 9 12 10 10 10 10 10 11 13 13 15 15 15 15 14 14 14 12 12 13 13 13 13 13 13 13 13 14 15 15 17 17 18 19 20 21 21 22 22
12 14 16 16 15 17 15 19 14 12 10 10 9 9 9 12 11 12 13 14 15 16 16 16 15 15 15 14 14 14 14 15 14 14 15 14 14 15 15 16 17 18 19 20 21 22 23 23 24
15 10 14 13 14 17 17 15 12 12 13 13 13 13 14 15 15 15 16 16 18 17 17 16 16 16 14 14 14 15 16 17 17 17 16 16 16 16 16 17 18 19 21 21 22 23 23 24 25
10 14 16 16 16 17 20 21 17 18 17 16 16 16 16 18 17 18 21 20 20 20 20 19 18 17 16 15 16 17 18 18 18 17 17 17 17 17 17 18 19 20 22 22 23 23 24 25 25
18 17 16 16 16 21 24 28 20 19 23 19 17 18 18 18 17 21 24 23 21 22 22 21 20 19 17 16 17 18 18 19 18 18 18 18 17 17 18 20 21 22 23 22 23 24 24 25 26
20 20 20 20 20 22 27 32 25 21 24 20 19 19 17 16 17 19 22 26 24 24 25 24 23 23 20 19 19 19 19 18 19 19 19 17 18 18 20 21 21 22 23 23 24 24 25 26 27
23 22 20 19 20 24 29 34 23 21 21 19 17 16 19 21 21 22 24 24 25 26 26 26 25 25 23 21 20 19 20 20 20 19 18 18 19 20 21 21 23 24 24 25 25 26 26 27 27
23 22 21 20 17 9 14 17 24 29 25 23 21 20 22 25 27 29 29 25 24 27 28 28 28 28 26 24 22 23 23 22 22 21 20 20 20 20 21 22 24 25 26 28 29 29 29 29 29
22 19 16 15 15 17 15 10 21 19 29 26 23 21 19 18 19 18 15 11 16 21 27 29 30 29 28 25 24 26 25 24 24 23 22 21 20 21 23 25 26 27 28 30 30 31 32 31 31
19 13 14 15 12 7 17 16 39 24 27 20 5 13 12 12 14 13 14 19 23 20 23 26 29 30 30 28 27 28 28 28 27 27 25 24 24 24 25 26 28 29 30 31 33 35 35 34 32
16 10 3 3 3 5 10 11 27 22 20 18 8 11 15 16 18 18 19 23 23 21 21 23 26 29 30 30 29 29 30 30 29 30 30 29 28 28 28 28 29 30 31 32 34 35 34 33 33
14 16 7 4 3 2 4 9 12 9 11 21 27 27 21 23 24 26 25 22 20 18 19 21 24 27 29 30 30 31 33 32 32 33 32 31 30 31 31 30 31 32 32 33 33 32 32 31 31
13 19 21 11 16 7 13 18 23 16 8 15 21 23 22 24 22 19 15 12 13 15 17 19 22 24 28 30 31 33 34 34 34 35 33 30 30 32 32 31 32 32 33 32 31 30 29 29 30
21 11 6 9 4 8 7 7 10 11 8 12 13 15 18 18 20 14 12 12 13 11 13 17 21 25 28 30 32 33 35 35 36 37 35 32 32 31 31 32 31 33 31 29 29 28 29 29 30
23 23 18 15 12 4 8 5 5 10 9 10 12 15 18 18 11 12 12 11 11 13 20 21 22 26 30 31 31 32 37 39 40 39 36 33 32 31 29 31 32 32 29 29 29 28 29 30 32
23 28 26 17 10 15 14 18 23 25 20 18 15 18 16 15 17 15 15 20 21 22 29 31 31 32 33 33 38 41 41 42 40 37 36 34 32 28 29 32 31 30 30 29 30 31 32 32 32
Wind_Direction
176 176 172 176 168 233 215 227 224 214 221 231 240 226 232 261 222 230 279 313 106 126 106 128 98 72 47 43 124 160 160 179 182 161 113 103 90 69 22 3 1 1 12 16 14 11 10 20 34
186 188 195 201 231 229 214 230 220 222 218 223 270 298 309 295 260 270 279 112 131 134 125 135 132 118 77 79 126 146 159 174 206 219 216 135 149 160 343 5 24 351 356 24 27 20 18 17 17
194 196 202 216 239 245 231 224 215 224 226 206 258 16 58 116 71 10 295 118 150 137 139 152 145 133 113 113 126 144 163 175 200 226 248 281 274 282 307 312 299 316 294 341 17 28 26 16 13
197 203 213 229 251 256 229 222 203 212 220 188 129 55 113 89 113 155 180 137 131 157 176 184 139 143 147 165 157 160 179 190 225 232 238 264 251 283 289 290 283 280 283 292 63 57 58 52 42
197 201 221 246 254 256 245 224 207 197 196 208 195 240 211 218 168 180 249 154 144 173 208 184 100 138 137 153 195 207 222 220 227 225 224 228 229 261 285 281 265 256 266 252 239 269 240 257 303
201 205 230 247 254 253 236 224 223 209 201 203 217 223 240 266 211 194 213 201 159 193 205 238 277 258 199 194 199 211 228 237 249 259 250 241 238 240 273 285 278 259 248 257 267 269 271 275 298
202 218 243 256 260 242 239 227 232 234 246 236 236 256 250 214 214 216 229 235 227 221 224 238 241 263 280 268 260 245 249 251 259 266 267 265 264 255 263 279 273 267 259 257 262 264 269 276 295
215 234 254 264 249 239 242 234 235 244 246 258 255 263 229 251 252 240 237 230 240 228 236 240 257 268 272 287 299 293 284 273 268 268 274 277 279 275 275 282 256 242 267 259 257 265 272 278 292
222 240 252 262 261 240 247 234 236 247 260 257 250 246 251 260 255 246 236 239 237 238 233 234 235 251 260 273 277 282 286 294 291 281 279 286 287 286 282 276 255 248 250 263 275 278 283 285 292
227 239 254 257 254 247 255 249 253 265 271 267 257 250 243 248 246 234 234 240 239 236 233 226 228 230 254 264 271 279 284 286 292 294 295 290 289 295 296 292 267 261 266 264 268 277 274 281 295
244 244 248 267 264 247 249 249 256 270 279 272 258 245 238 238 234 233 234 239 239 236 231 231 235 232 238 249 261 273 277 284 286 289 291 295 298 292 290 288 284 279 272 275 276 276 281 283 288
255 258 261 264 264 259 258 266 273 280 282 274 266 259 252 248 233 229 232 237 239 241 240 238 238 237 243 252 259 269 274 278 283 284 287 291 292 290 285 281 278 277 281 281 281 283 284 287 288
260 263 264 268 261 256 259 267 275 285 286 283 271 261 253 249 245 244 245 249 252 253 253 252 247 247 250 256 262 263 269 273 276 279 280 281 282 282 282 281 279 284 284 282 278 281 285 285 287
263 265 264 262 262 261 267 273 276 287 284 278 276 262 260 255 254 258 260 259 260 263 262 261 260 256 255 257 264 269 271 272 272 276 277 277 277 280 282 282 283 284 283 287 291 291 289 287 286
260 259 260 260 260 265 273 273 282 275 284 266 272 265 267 263 269 271 277 279 270 270 269 264 261 263 261 259 260 259 259 263 269 271 273 273 274 274 278 282 282 286 289 290 290 290 289 288 287
260 262 259 262 259 262 266 273 281 273 275 271 274 271 273 278 273 281 280 279 276 272 265 257 257 253 252 253 255 258 260 261 264 267 267 268 270 272 275 280 284 288 288 287 287 287 287 290 289
257 250 258 265 260 261 260 268 276 269 271 271 272 270 270 272 273 276 275 269 269 264 257 254 251 251 251 251 253 255 256 256 258 260 264 266 269 273 278 280 284 288 288 289 289 288 290 291 291
265 263 265 262 268 269 272 274 270 270 265 262 263 268 270 270 274 266 262 260 262 257 254 252 249 248 249 252 253 249 249 249 252 257 261 265 269 274 278 283 286 288 287 290 292 293 294 294 294
262 265 269 269 270 277 279 278 275 266 267 268 275 279 279 280 274 270 271 262 255 253 252 254 252 250 250 251 250 247 248 251 257 261 264 265 270 276 281 285 287 289 289 291 293 293 294 295 295
261 261 265 272 275 281 283 280 279 267 269 272 281 283 282 285 281 274 283 269 256 249 245 243 245 246 247 247 245 247 250 255 259 261 264 269 276 281 286 288 290 291 293 294 293 293 294 293 293
259 258 260 265 277 279 287 291 289 272 267 274 278 275 276 278 277 279 283 273 259 253 246 244 246 246 248 254 253 250 252 257 259 261 265 271 278 287 290 293 294 295 295 297 297 295 293 292 291
257 259 262 267 272 271 286 292 275 279 278 278 279 284 276 273 271 272 275 273 267 262 251 245 247 249 252 254 253 247 249 254 256 260 265 273 283 288 291 293 294 296 296 297 298 297 293 290 289
257 260 258 262 260 272 267 264 280 282 284 288 287 274 274 277 280 273 268 266 276 267 254 248 248 248 249 250 249 245 248 252 255 257 264 271 278 287 292 294 296 298 298 296 296 294 291 287 284
245 255 262 264 256 250 258 223 276 280 290 298 290 281 266 263 272 253 267 287 292 276 268 261 256 253 251 251 251 249 248 251 252 256 259 265 274 283 291 298 299 298 297 295 293 292 290 284 279
234 230 237 231 183 248 271 218 250 287 289 286 273 275 265 268 269 267 278 284 285 284 275 268 262 259 257 254 253 251 249 252 250 253 258 265 275 283 291 297 297 296 296 295 292 290 287 282 277
225 221 217 237 246 317 268 233 272 273 272 289 281 283 267 266 273 279 287 282 274 273 274 273 266 261 259 257 256 254 251 251 249 251 255 265 275 283 288 295 297 298 299 297 293 288 283 279 276
227 222 240 257 268 269 250 268 278 284 290 269 268 273 269 271 275 283 274 261 268 277 278 275 271 268 264 260 257 257 255 254 252 250 254 263 275 281 286 297 300 300 300 295 290 287 283 280 277
226 231 206 212 252 257 221 253 258 285 259 256 253 261 269 280 275 258 252 268 267 263 280 287 285 277 268 262 259 259 257 255 253 255 259 265 274 279 287 297 299 301 297 292 288 285 283 282 279
230 227 227 237 245 272 286 255 199 280 262 278 262 261 259 255 245 249 267 268 273 276 275 282 287 286 276 267 263 265 266 262 255 253 257 265 272 279 288 297 302 300 293 288 286 285 284 283 279
238 243 245 228 232 240 264 265 267 261 262 252 241 241 249 256 254 267 284 287 276 272 273 278 281 283 278 269 270 268 263 253 249 253 258 263 268 272 284 298 298 291 286 285 286 287 285 282 278
Height
3173 3174 3175 3176 3181 3177 3176 3176 3175 3175 3175 3175 3175 3176 3177 3177 3177 3181 3174 3174 3175 3174 3173 3172 3172 3171 3172 3172 3171 3170 3171 3171 3171 3171 3171 3171 3171 3171 3171 3170 3170 3170 3170 3170 3170 3170 3170 3168 3167
3173 3174 3176 3176 3179 3176 3176 3174 3175 3175 3174 3174 3175 3175 3176 3176 3175 3175 3173 3173 3173 3173 3172 3171 3171 3171 3171 3171 3170 3170 3170 3171 3171 3171 3172 3171 3171 3170 3170 3170 3170 3170 3170 3170 3169 3170 3170 3169 3168
3174 3174 3176 3176 3175 3175 3175 3174 3174 3174 3174 3174 3174 3175 3175 3176 3175 3174 3173 3173 3172 3172 3171 3170 3170 3170 3170 3171 3170 3170 3170 3170 3171 3171 3171 3171 3170 3170 3169 3169 3169 3169 3169 3170 3170 3169 3168 3168 3168
3173 3175 3177 3175 3175 3174 3173 3173 3173 3174 3173 3173 3174 3174 3175 3174 3174 3173 3172 3172 3172 3171 3170 3170 3170 3170 3170 3170 3170 3170 3170 3169 3170 3170 3170 3170 3170 3169 3168 3168 3168 3168 3167 3167 3167 3167 3167 3167 3167
3173 3174 3175 3173 3173 3173 3172 3172 3173 3173 3174 3173 3173 3174 3174 3173 3173 3172 3171 3171 3171 3171 3170 3170 3170 3169 3170 3170 3170 3170 3169 3169 3168 3168 3169 3168 3169 3169 3168 3167 3167 3167 3167 3166 3166 3167 3166 3165 3165
3172 3173 3174 3173 3172 3171 3171 3171 3171 3172 3172 3173 3173 3173 3174 3173 3172 3172 3171 3171 3171 3170 3169 3169 3169 3169 3169 3169 3168 3168 3168 3168 3168 3167 3167 3167 3167 3167 3166 3166 3165 3165 3165 3166 3165 3165 3165 3164 3164
3171 3172 3172 3171 3171 3170 3170 3170 3170 3171 3171 3172 3172 3173 3173 3172 3171 3171 3171 3170 3170 3170 3169 3168 3168 3168 3169 3168 3168 3168 3168 3167 3166 3166 3166 3166 3166 3166 3165 3164 3164 3163 3163 3164 3163 3163 3164 3164 3163
3170 3171 3170 3169 3169 3170 3169 3169 3170 3170 3170 3171 3171 3171 3172 3171 3171 3171 3170 3170 3169 3169 3168 3167 3168 3168 3168 3168 3168 3167 3166 3166 3166 3165 3165 3165 3165 3164 3163 3163 3163 3162 3162 3162 3162 3162 3162 3162 3161
3169 3171 3169 3168 3168 3168 3168 3168 3168 3169 3169 3169 3169 3170 3170 3170 3170 3169 3169 3168 3168 3167 3167 3167 3166 3167 3167 3166 3166 3165 3165 3164 3164 3164 3164 3164 3163 3163 3162 3161 3161 3161 3161 3160 3160 3160 3160 3159 3158
3167 3168 3168 3167 3167 3167 3167 3167 3167 3168 3167 3167 3167 3167 3167 3168 3167 3167 3167 3166 3166 3165 3165 3165 3165 3165 3165 3165 3164 3164 3164 3164 3163 3163 3163 3162 3162 3161 3161 3160 3159 3159 3158 3158 3158 3158 3158 3157 3156
3166 3166 3166 3166 3165 3165 3165 3165 3166 3166 3166 3165 3165 3164 3164 3164 3165 3165 3164 3164 3163 3162 3163 3163 3163 3163 3163 3163 3163 3163 3163 3163 3162 3162 3162 3161 3160 3160 3160 3158 3158 3157 3156 3156 3156 3155 3155 3154 3154
3165 3164 3164 3164 3164 3164 3164 3164 3164 3164 3163 3163 3163 3162 3162 3162 3162 3162 3161 3161 3160 3160 3161 3161 3161 3161 3161 3160 3160 3161 3161 3161 3161 3161 3160 3160 3159 3158 3157 3156 3156 3154 3154 3153 3153 3152 3151 3151 3150
3162 3162 3162 3161 3161 3162 3162 3161 3161 3161 3160 3160 3159 3159 3159 3159 3160 3160 3160 3160 3159 3159 3159 3159 3159 3159 3158 3159 3159 3159 3159 3159 3159 3159 3159 3158 3157 3156 3155 3154 3153 3152 3152 3151 3150 3148 3148 3147 3147
3160 3159 3159 3159 3159 3159 3159 3159 3158 3159 3157 3157 3156 3156 3157 3157 3157 3157 3158 3157 3157 3157 3157 3157 3157 3156 3156 3157 3157 3157 3157 3157 3156 3156 3155 3155 3154 3153 3153 3152 3151 3149 3148 3147 3147 3145 3145 3144 3143
3157 3157 3156 3156 3156 3156 3157 3155 3154 3154 3154 3153 3154 3154 3154 3154 3155 3155 3155 3155 3154 3154 3154 3154 3154 3154 3154 3154 3153 3153 3153 3153 3153 3153 3152 3151 3150 3150 3150 3149 3148 3147 3146 3144 3143 3142 3141 3139 3138
3154 3154 3153 3153 3153 3153 3154 3151 3152 3152 3151 3151 3151 3151 3151 3151 3152 3152 3151 3151 3150 3150 3150 3150 3150 3150 3150 3150 3150 3150 3150 3149 3149 3148 3148 3147 3147 3146 3146 3145 3144 3143 3142 3140 3139 3138 3136 3135 3134
3151 3151 3150 3151 3150 3150 3149 3147 3148 3147 3147 3147 3147 3147 3147 3147 3147 3147 3147 3147 3146 3146 3145 3146 3146 3146 3146 3146 3146 3146 3146 3145 3145 3144 3144 3143 3142 3142 3141 3140 3140 3138 3138 3136 3134 3134 3132 3131 3130
3149 3148 3148 3148 3148 3146 3145 3144 3145 3143 3142 3142 3142 3142 3142 3142 3143 3143 3142 3142 3141 3141 3141 3141 3141 3141 3141 3141 3141 3140 3140 3140 3140 3140 3139 3139 3139 3138 3137 3136 3135 3134 3133 3131 3130 3129 3127 3125 3124
3146 3146 3146 3145 3145 3143 3141 3138 3140 3140 3137 3139 3139 3138 3138 3138 3139 3138 3137 3137 3137 3136 3136 3137 3137 3137 3137 3137 3136 3136 3136 3136 3136 3135 3135 3134 3134 3134 3133 3132 3131 3130 3129 3127 3126 3124 3122 3120 3118
3141 3141 3141 3141 3140 3139 3135 3131 3134 3135 3133 3135 3135 3135 3134 3134 3133 3132 3131 3130 3131 3131 3130 3130 3131 3131 3132 3131 3131 3131 3131 3132 3131 3131 3130 3130 3130 3129 3129 3128 3126 3126 3124 3122 3120 3118 3117 3115 3113
3137 3137 3137 3139 3137 3134 3130 3123 3125 3127 3128 3130 3131 3131 3130 3129 3128 3127 3125 3125 3125 3125 3126 3126 3126 3127 3127 3128 3128 3128 3128 3127 3127 3127 3126 3125 3125 3125 3124 3123 3122 3120 3118 3116 3115 3112 3111 3109 3107
3132 3132 3133 3134 3136 3134 3131 3122 3119 3120 3123 3124 3126 3124 3123 3122 3121 3120 3119 3119 3120 3121 3121 3121 3122 3122 3122 3123 3123 3123 3123 3122 3122 3121 3121 3121 3121 3120 3119 3118 3116 3114 3112 3110 3108 3106 3104 3103 3101
3128 3129 3130 3130 3131 3130 3126 3130 3110 3113 3114 3119 3120 3118 3117 3115 3114 3114 3114 3114 3115 3114 3115 3116 3116 3116 3117 3118 3118 3118 3118 3118 3117 3116 3116 3116 3115 3114 3113 3112 3110 3108 3106 3104 3101 3099 3097 3095 3094
3124 3126 3128 3127 3128 3126 3120 3123 3103 3111 3110 3112 3114 3114 3113 3112 3111 3110 3110 3110 3110 3109 3110 3110 3110 3111 3111 3112 3112 3112 3112 3112 3112 3111 3110 3110 3108 3107 3106 3105 3103 3101 3099 3096 3094 3091 3089 3088 3086
3121 3123 3125 3125 3125 3118 3114 3117 3105 3106 3107 3108 3109 3109 3109 3109 3107 3106 3106 3105 3106 3105 3104 3105 3105 3105 3106 3106 3106 3105 3105 3106 3105 3104 3103 3102 3101 3100 3099 3098 3096 3093 3091 3088 3086 3083 3081 3080 3079
3116 3119 3119 3117 3113 3112 3113 3107 3102 3104 3105 3105 3104 3102 3101 3101 3101 3101 3100 3100 3100 3099 3099 3099 3099 3100 3101 3101 3100 3099 3098 3098 3097 3096 3096 3095 3094 3093 3092 3090 3088 3086 3083 3080 3077 3075 3073 3072 3071
3110 3112 3113 3114 3112 3111 3104 3100 3099 3098 3100 3098 3096 3094 3093 3093 3093 3094 3094 3094 3094 3095 3094 3094 3093 3093 3093 3093 3094 3094 3092 3092 3091 3089 3089 3087 3086 3085 3084 3082 3080 3078 3075 3072 3069 3067 3065 3063 3063
3106 3107 3110 3112 3108 3097 3092 3096 3094 3095 3095 3093 3091 3091 3091 3090 3089 3088 3088 3089 3089 3087 3089 3089 3089 3087 3086 3084 3084 3085 3085 3084 3084 3083 3082 3081 3079 3077 3076 3074 3071 3069 3067 3064 3062 3060 3058 3057 3056
3100 3100 3102 3105 3103 3097 3090 3090 3091 3092 3089 3088 3088 3088 3087 3086 3086 3085 3085 3084 3083 3081 3082 3083 3082 3081 3079 3078 3076 3075 3077 3076 3075 3074 3074 3072 3071 3069 3067 3065 3063 3060 3058 3058 3056 3054 3052 3050 3049
3091 3091 3094 3096 3095 3092 3090 3084 3090 3083 3082 3081 3082 3082 3081 3080 3080 3078 3078 3078 3077 3075 3076 3075 3074 3072 3072 3070 3069 3068 3067 3066 3066 3067 3065 3063 3061 3058 3057 3057 3054 3052 3050 3050 3049 3047 3046 3043 3041